Voltar ao catálogo

FENGYUN 1C DEB

AtivoPO
NORAD 30736·DEBRIS·🇨🇳 China

Lançado May 10, 1999 de Taiyuan Satellite Launch Center

Loading…

Próximas Passagens (próximas 24 horas)

TLE

AtualizadoSource: Space-Track

Época: Sep 14, 2026, 12:38 UTC

1 30736U 99025ASW 26257.52696624  .00001012  00000-0  10408-2 0  9995
2 30736  98.7626 273.0826 0279245  53.6055  95.6073 13.62422267966073

Acompanhe FENGYUN 1C DEB em tempo real com AllMySat

Download on the App Store